Location: Martin Dies, Jr. State Park
(30.8429°N, 94.1720°W)
Time: 06:45:19
(UTC-06:00)

ISS - Pass Details

Date: 14 November 2019
Orbit: 411 x 421 km, 51.6° (Epoch: 06 December)

Event Time Altitude Azimuth Distance (km) Brightness Sun altitude
Exits shadow 05:46:08 21° 282° (WNW) 1,002 -2.5 -12.3°
Maximum altitude 05:47:47 34° 230° (SW) 706 -2.9 -12.0°
Drops below altitude 10° 05:50:52 10° 163° (SSE) 1,490 -0.5 -11.3°
Sets 05:53:03 0° 154° (SSE) 2,347 0.7 -10.9°
